Das Wetter in  D-61279 Heinzenberg / Taunus





Wetter Minimum- & Maximum-Werte im November 2008

Standort: Heinzenberg / Taunus - Höhe 297 m         8 24' 1" Ost 50 21' 51" Nord
(   3-stündige Aktualisierung    letzte Aktualisierung um 19:04 am 30.11.2008  )


Messgrösse

Minimum

Maximum

Durchschnitt

Temperatur West /
Luftfeuchte West
Anklicken für Monats-Diagramm

-5,0 C

00:58
25.11.2008

60 %

14:55
11.11.2008

15,4 C

14:13
04.11.2008

96 %

12:03
04.11.2008

Temp

5,1 C

Feuchte

86 %

Temperatur Ost /
Luftfeuchte Ost
Anklicken für Monats-Diagramm

-4,6 C

00:48
25.11.2008

--

--
--

15,0 C

14:38
04.11.2008

--

--
--

5,2 C

--

Luftdruck Anklicken für Monats-Diagramm

987,9 hPa

05:32
24.11.2008

1034,9 hPa

07:35
17.11.2008

1015,2 hPa

Taupunkt

-6,4 C

00:58
25.11.2008

12,4 C

13:18
04.11.2008

2,9 C

Windchill
( gefühlte Temperatur )

-18,3 C

10:25
22.11.2008

15,4 C

14:13
04.11.2008

2,0 C

Windgeschwindigkeit /
Windrichtung
Anklicken für Monats-Diagramm

---

63,1 km/h / W

14:29
21.11.2008

9,5 km/h
W-SW

Helligkeit /
Sonnenschein
Anklicken für Monats-Diagramm
Anklicken für Monats-Diagramm

Sonnenschein:

40:25 Stunden

Max: 5:05 Std am
14.11.2008

60,1 klux

11:58
14.11.2008

10,9 klux

Solarstrahlung Anklicken für Monats-Diagramm

---

411 W/m

11:58
14.11.2008

83 W/m

Regenmenge
    November 2008
Anklicken für Monats-Diagramm

Insgesamt 34,0 l/m

in 37:42 Stunden
an 18 Tagen

8,1 l/m

09:39
21.11.2008

Gesamtmenge

34,0 l/m

Regen-Tage
    November 2008
Anklicken für Monats-Diagramm

>   0 mm/Tag

>   2 mm/Tag

>   5 mm/Tag

> 10 mm/Tag

> 20 mm/Tag

18 Tage     
6 Tage     
4 Tage     
0 Tage     
0 Tage     

Eisige Tage November 2008 / 2007

Tmin ≤ -10C     

0 Tage

/

0 Tage

Eistage November 2008 / 2007

Tmax <     0C     

0 Tage

/

0 Tage

Frosttage November 2008 / 2007

Tmin ≤     0C     

11 Tage

/

8 Tage

Kalte Tage November 2008 / 2007

Tmax <   10C     

17 Tage

/

25 Tage

Warme Tage November 2008 / 2007

Tmax ≥   20C     

0 Tage

/

0 Tage

Sommertage November 2008 / 2007

Tmax ≥   25C     

0 Tage

/

0 Tage

Heisse Tage November 2008 / 2007

Tmax ≥   30C     

0 Tage

/

0 Tage


Monatsdiagramm November 2008

Die Kurven zeigen den Durchschnittswert des jeweiligen Tages an


Wetter-Monatsübersicht November 2008
Datum
  Temperatur
   Luftdruck
   Wind
  Regen
   Luftfeuchte
   Helligkeit

Sonnen-
schein


Temp.

Min.
Temp.

Max.
Temp.


Luftdruck

Min.
Luftdruck

Max.
Luftdruck

-Geschw.
Haupt-Richtg.

Max.
Wind

Menge /
Dauer


Feuchte

Min.
Feuchte

Max.
Feuchte


Helligkeit

Max.
Helligkeit

1.
November
6,8 C3,9 C
07:00
10,8 C
13:50
1008,6 hPa1006,4 hPa
13:50
1013,1 hPa
23:56
1,8 km/h
SO
14,0 km/h
12:20  
0,9 l/m
1:15 Stunden
89 %80 %
14:15
95 %
10:25
14,1 klux58,5 klux
11:35
1:05 Std 
2.
November
8,3 C5,6 C
05:31
14,2 C
15:31
1016,0 hPa1013,1 hPa
00:01
1018,4 hPa
08:46
1,4 km/h
NW
12,8 km/h
13:51  
---
88 %75 %
15:31
94 %
09:56
17,1 klux46,7 klux
12:11
3:10 Std 
3.
November
7,5 C3,1 C
23:58
11,1 C
14:47
1014,7 hPa1013,1 hPa
02:27
1018,8 hPa
23:58
1,5 km/h
NO
13,6 km/h
01:57  
---
90 %84 %
15:42
93 %
09:47
6,1 klux16,8 klux
13:07
5 Min 
4.
November
7,9 C3,1 C
00:03
15,4 C
14:13
1018,5 hPa1014,0 hPa
23:54
1020,7 hPa
05:38
2,4 km/h
NO
19,1 km/h
23:19  
---
88 %74 %
15:38
96 %
12:03
17,3 klux45,2 klux
12:08
2:40 Std 
5.
November
9,6 C7,6 C
00:24
11,6 C
12:09
1013,3 hPa1011,7 hPa
09:19
1015,9 hPa
23:20
3,5 km/h
O-NO
22,3 km/h
01:39  
---
88 %84 %
12:54
90 %
21:24
5,2 klux15,1 klux
08:59
--- 
6.
November
9,5 C8,4 C
06:40
11,2 C
14:45
1016,3 hPa1014,9 hPa
22:56
1018,1 hPa
08:40
0,7 km/h
SO
8,7 km/h
07:35  
---
86 %80 %
14:30
90 %
00:00
6,9 klux14,8 klux
12:10
--- 
7.
November
9,1 C5,6 C
23:42
13,2 C
15:16
1015,8 hPa1013,9 hPa
04:01
1018,5 hPa
23:42
3,4 km/h
W-SW
19,2 km/h
14:51  
---
83 %72 %
15:26
90 %
23:52
10,6 klux35,5 klux
13:31
55 Min 
8.
November
7,4 C3,6 C
22:02
13,1 C
13:22
1020,9 hPa1018,4 hPa
00:07
1022,9 hPa
21:52
4,3 km/h
W-SW
17,0 km/h
10:47  
0,3 l/m
1:05 Stunden
85 %70 %
15:27
93 %
05:02
18,7 klux57,1 klux
11:32
3:35 Std 
9.
November
8,7 C7,0 C
00:03
10,6 C
11:48
1019,7 hPa1017,0 hPa
07:53
1021,4 hPa
00:03
22,1 km/h
W-SW
47,9 km/h
11:03  
5,2 l/m
5:10 Stunden
85 %77 %
05:38
92 %
17:13
6,2 klux18,2 klux
11:03
--- 
10.
November
12,4 C10,5 C
00:04
13,9 C
13:29
1017,3 hPa1013,3 hPa
23:45
1019,7 hPa
10:19
33,0 km/h
W-SW
55,2 km/h
06:29  
0,3 l/m
55 Minuten
78 %71 %
18:49
90 %
03:09
11,4 klux49,4 klux
11:24
1:05 Std 
11.
November
11,0 C7,7 C
22:46
13,6 C
00:00
1012,8 hPa1009,3 hPa
07:55
1016,1 hPa
22:46
28,3 km/h
W-SW
50,9 km/h
11:00  
0,2 l/m
56 Minuten
71 %60 %
14:55
81 %
11:00
14,6 klux47,6 klux
12:45
2:55 Std 
12.
November
6,4 C2,6 C
23:57
8,8 C
12:06
1018,8 hPa1016,1 hPa
00:01
1023,0 hPa
23:57
5,7 km/h
W-SW
20,7 km/h
13:41  
0,2 l/m
50 Minuten
83 %75 %
00:01
90 %
23:02
10,5 klux53,8 klux
11:36
55 Min 
13.
November
3,7 C0,0 C
06:07
8,3 C
13:52
1025,9 hPa1023,0 hPa
00:02
1029,2 hPa
23:08
1,3 km/h
NW
8,0 km/h
15:42  
---
88 %81 %
14:57
93 %
10:17
11,6 klux38,7 klux
10:02
25 Min 
14.
November
4,2 C-1,3 C
06:53
10,4 C
14:47
1028,5 hPa1027,2 hPa
14:47
1029,7 hPa
06:53
6,6 km/h
W-SW
27,5 km/h
12:58  
---
82 %60 %
14:27
93 %
10:08
21,1 klux60,1 klux
11:58
5:05 Std 
15.
November
7,9 C7,1 C
03:19
9,0 C
23:10
1028,3 hPa1027,4 hPa
14:00
1028,6 hPa
03:19
11,0 km/h
W-SW
23,7 km/h
13:25  
---
86 %82 %
00:04
89 %
09:05
3,5 klux7,0 klux
11:55
--- 
16.
November
8,3 C3,6 C
23:25
10,9 C
14:05
1027,7 hPa1026,1 hPa
14:05
1032,2 hPa
23:55
11,9 km/h
W-SW
29,0 km/h
17:05  
1,7 l/m
2:36 Stunden
90 %85 %
00:00
93 %
12:20
7,02 klux36,20 klux
12:16
10 Min 
17.
November
2,1 C-1,2 C
07:05
7,8 C
14:50
1031,4 hPa1024,2 hPa
23:36
1034,9 hPa
07:35
1,1 km/h
SO
7,9 km/h
18:50  
---
89 %81 %
15:10
94 %
11:30
18,2 klux50,0 klux
11:05
3:20 Std 
18.
November
3,7 C0,5 C
03:11
6,0 C
20:51
1017,0 hPa1014,3 hPa
15:11
1024,2 hPa
00:31
9,1 km/h
W-SW
23,6 km/h
20:46  
---
15 Minuten
86 %76 %
11:26
92 %
04:36
9,1 klux38,4 klux
10:06
40 Min 
19.
November
6,0 C3,0 C
05:12
7,7 C
14:57
1018,8 hPa1016,3 hPa
00:47
1020,7 hPa
07:57
16,5 km/h
W
38,4 km/h
22:38  
---
15 Minuten
85 %78 %
16:22
91 %
00:02
6,1 klux17,0 klux
13:52
--- 
20.
November
7,6 C6,4 C
21:53
8,9 C
15:58
1012,4 hPa1009,8 hPa
16:08
1017,2 hPa
00:48
27,9 km/h
W
45,3 km/h
10:58  
2,1 l/m
3:35 Stunden
85 %80 %
01:03
91 %
13:03
4,4 klux20,2 klux
14:28
10 Min 
21.
November
3,3 C-0,8 C
21:34
6,8 C
02:34
1004,0 hPa998,0 hPa
13:44
1010,0 hPa
00:14
28,2 km/h
W
63,1 km/h
14:29  
8,1 l/m
8:00 Stunden
88 %82 %
02:34
91 %
10:34
4,6 klux14,9 klux
13:49
--- 
22.
November
-0,6 C-1,7 C
07:00
0,5 C
14:15
1006,3 hPa1004,8 hPa
02:15
1008,9 hPa
23:41
23,0 km/h
W
47,4 km/h
10:25  
5,5 l/m
2:00 Stunden
87 %82 %
15:25
92 %
00:40
10,6 klux53,0 klux
12:05
45 Min 
23.
November
-0,6 C-1,9 C
19:41
1,0 C
13:56
1003,7 hPa988,3 hPa
23:52
1010,0 hPa
06:06
16,5 km/h
W
34,8 km/h
16:41  
3,2 l/m
1:56 Stunden
86 %77 %
15:06
90 %
03:11
8,1 klux19,1 klux
10:36
--- 
24.
November
0,2 C-4,2 C
23:53
3,1 C
12:27
993,9 hPa987,9 hPa
05:32
1005,2 hPa
23:53
10,5 km/h
W-SW
27,1 km/h
10:02  
6,2 l/m
7:55 Stunden
89 %83 %
12:37
91 %
03:27
10,7 klux38,0 klux
10:07
1:15 Std 
25.
November
-1,3 C-5,0 C
00:58
0,4 C
15:43
1013,3 hPa1005,3 hPa
00:03
1022,3 hPa
22:34
0,6 km/h
W-NW
13,9 km/h
15:33  
0,3 l/m
10 Minuten
92 %90 %
00:03
94 %
21:03
5,5 klux15,9 klux
13:28
--- 
26.
November
1,2 C-0,3 C
05:39
3,6 C
14:59
1026,3 hPa1022,3 hPa
00:04
1028,3 hPa
10:54
2,6 km/h
W-SW
14,6 km/h
11:49  
---
4 Minuten
93 %89 %
15:09
95 %
08:49
10,2 klux44,6 klux
11:39
1:15 Std 
27.
November
2,3 C0,8 C
04:35
5,5 C
13:15
1022,1 hPa1015,9 hPa
23:25
1027,4 hPa
00:55
4,2 km/h
W-SW
19,0 km/h
13:40  
---
20 Minuten
87 %78 %
13:25
93 %
07:05
13,6 klux57,5 klux
12:50
1:40 Std 
28.
November
-1,1 C-2,6 C
08:00
0,9 C
00:00
1007,4 hPa999,7 hPa
23:36
1016,1 hPa
00:35
0,6 km/h
SO
10,8 km/h
14:05  
---
87 %82 %
00:00
91 %
09:40
15,4 klux39,4 klux
11:05
2:40 Std 
29.
November
0,1 C-2,8 C
21:31
5,6 C
13:46
997,8 hPa996,7 hPa
22:52
999,7 hPa
00:01
1,2 km/h
W-SW
13,8 km/h
15:06  
---
86 %72 %
14:36
90 %
00:01
14,4 klux45,4 klux
13:11
3:05 Std 
30.
November
0,2 C-2,6 C
04:27
5,1 C
13:47
997,2 hPa994,6 hPa
05:22
999,6 hPa
19:27
5,6 km/h
SO
33,2 km/h
14:22  
---
25 Minuten
87 %79 %
14:02
92 %
10:07
14,0 klux43,1 klux
13:27
3:30 Std 



November
2008

Temperatur

  

Luftdruck

  

Wind

  

Regen

  

Luftfeuchte

  

Helligkeit

Sonnen-
schein

Min

Max

Min

Max

Max

Max

Min

Max

Max

Max

5,1 C

-5,0 C

00:58 Uhr
25.11.2008

15,4 C

14:13 Uhr
04.11.2008

1015,2 hPa

987,9 hPa

05:32 Uhr
24.11.2008

1034,9 hPa

07:35 Uhr
17.11.2008

9,5 km/h

W-SW

63,1 km/h

14:29 Uhr
21.11.2008

8,1 l/m

8:00 Stunden
21.11.2008

86 %

60 %

14:55 Uhr
11.11.2008

96 %

12:03 Uhr
04.11.2008

10,9 klux

60,1 klux

11:58 Uhr
14.11.2008

5:05 Std

am
14.11.2008

Gesamt

Gesamt

34,0 l/m

18 Tage
37:42 h

40:25 Std


Wetter-Diagramme November 2008     Heinzenberg / Taunus   
TemperaturLuftfeuchte
SolarstrahlungLuftdruck
HelligkeitSonnenschein
RegenmengeRegendauer
Wind-GeschwindigkeitWind-Richtung